Wind_Speed
20 22 21 21 24 26 22 20 22 21 20 19 17 20 14 22 23 22 21 26 30 26 25 29 30 31 30 29 28 25 26 22 10 13 13 12 14 14 14 14 15 17 16
4 9 10 12 19 25 24 19 15 17 15 18 21 18 18 21 18 22 26 24 28 29 26 25 29 29 32 31 28 28 26 26 25 16 14 16 16 14 19 17 16 21 19
9 13 10 9 9 17 19 13 10 14 15 17 21 20 16 17 19 18 19 18 18 18 18 22 27 30 31 31 32 31 30 29 24 20 19 17 14 14 18 18 17 14 15
9 9 12 11 11 8 5 8 10 10 10 12 10 13 15 13 13 13 16 13 9 12 14 17 22 26 29 29 30 28 29 27 22 21 19 15 13 11 12 13 17 18 19
2 4 5 6 7 6 6 7 8 7 6 8 9 9 9 12 13 11 11 12 14 14 8 6 7 11 18 19 24 29 27 27 24 22 16 15 15 12 12 15 19 20 16
3 3 4 4 5 6 7 7 8 9 8 7 6 8 11 10 12 15 12 9 9 10 6 3 4 6 8 15 19 26 30 27 24 23 19 14 26 15 14 17 17 12 4
9 10 11 11 10 10 11 11 10 10 10 9 10 11 12 11 13 18 21 16 11 11 10 6 6 5 5 12 18 28 31 32 31 28 23 26 22 22 15 11 11 11 15
18 19 18 17 16 14 15 15 14 13 13 14 15 15 16 17 15 17 20 25 21 20 20 12 8 11 11 7 11 21 22 27 31 25 27 30 27 20 17 15 12 12 12
20 22 22 23 21 19 20 20 20 19 18 19 20 20 19 21 20 23 23 27 29 26 20 21 16 14 12 7 12 22 20 21 19 24 24 22 22 21 17 15 12 10 8
20 20 21 23 24 24 25 26 25 23 23 22 22 23 25 28 24 21 26 32 33 32 26 23 18 14 17 14 15 30 23 27 23 21 26 25 27 22 20 20 20 18 14
20 18 16 18 21 27 29 28 27 26 26 25 26 26 25 27 28 28 29 31 35 35 35 35 28 23 26 20 24 32 33 26 28 23 27 21 18 22 24 23 25 26 24
22 22 22 22 24 25 28 32 31 30 28 27 26 28 29 27 27 29 29 33 35 36 33 37 35 32 23 22 33 30 29 26 23 23 26 23 22 22 22 22 22 24 28
27 25 28 29 29 29 31 31 30 32 29 25 23 21 24 28 30 30 30 29 28 36 38 40 38 28 31 31 27 24 24 28 27 25 22 24 27 27 25 23 24 23 24
25 26 26 26 27 28 28 29 25 24 22 21 20 20 21 27 28 29 28 27 25 27 33 41 36 30 28 30 28 29 27 29 27 27 25 26 23 22 24 24 26 24 27
26 26 25 24 24 25 25 25 25 26 27 22 23 25 20 21 28 26 26 21 13 17 18 15 20 21 24 25 27 29 27 21 23 25 23 26 26 24 29 30 27 25 23
25 24 25 24 23 21 22 23 25 27 30 28 30 30 28 27 28 29 28 30 28 26 17 14 15 18 17 17 18 23 27 27 30 26 23 25 26 29 27 29 29 27 23
27 28 25 24 21 19 20 19 18 22 24 26 26 26 28 27 27 33 33 29 32 26 17 17 15 18 18 18 19 20 23 28 29 26 24 26 26 27 25 23 25 25 22
28 28 26 25 24 18 18 20 19 17 15 18 23 23 24 25 22 21 23 20 22 21 23 22 22 23 23 21 22 22 23 24 25 26 25 27 27 24 21 20 21 21 21
27 25 24 25 24 21 19 18 17 17 17 19 22 20 21 22 22 22 22 21 24 23 24 24 26 27 29 28 27 25 26 24 25 25 26 27 27 25 22 21 23 25 23
28 27 22 21 21 21 19 17 16 17 18 16 19 22 21 20 18 19 20 22 23 24 24 25 29 28 28 27 26 31 30 28 28 29 29 30 31 29 25 25 25 22 22
27 23 15 18 16 19 18 17 19 18 17 17 20 21 19 21 23 24 26 26 28 30 27 26 27 27 30 29 29 27 30 29 30 33 34 33 31 27 30 31 29 28 26
28 21 19 16 18 18 20 17 16 15 16 19 22 21 20 20 24 23 27 28 28 27 27 27 27 26 28 29 31 30 29 28 28 32 31 29 27 29 30 30 27 24 22
28 26 25 25 24 23 22 22 20 20 17 18 18 21 19 20 21 22 25 27 28 30 33 33 32 30 29 31 32 33 31 28 32 31 28 27 28 30 30 28 26 22 22
27 28 26 25 26 24 23 21 21 22 22 21 20 17 15 14 12 12 12 18 25 28 31 30 30 31 33 30 31 33 32 33 32 32 31 33 31 31 29 30 28 27 24
28 26 24 25 25 24 23 22 22 22 20 20 20 20 19 18 16 14 14 13 10 7 8 11 18 28 32 31 31 32 31 27 27 32 26 29 31 32 31 31 29 26 24
27 28 26 24 25 25 25 25 23 23 22 21 20 21 21 19 19 20 24 22 20 17 15 14 15 16 21 25 26 25 25 29 29 28 32 33 31 26 30 26 27 27 26
Wind_Direction
246 250 250 250 244 250 252 258 257 254 258 248 220 191 209 254 256 258 238 249 259 255 260 259 263 257 253 251 250 253 257 253 228 255 252 241 229 213 201 198 201 203 219
354 323 281 297 260 256 260 265 261 255 252 257 231 221 235 242 249 253 241 245 259 257 253 252 257 256 248 248 253 257 251 253 242 240 253 249 245 241 228 223 237 234 238
23 26 15 3 319 263 266 268 267 269 277 265 253 241 270 256 251 246 242 252 257 261 264 259 255 250 248 248 252 256 252 247 242 240 247 252 238 242 233 246 250 237 234
42 45 38 26 5 8 321 306 310 301 294 285 265 256 268 269 259 240 231 239 254 271 260 260 260 253 249 247 248 254 251 248 243 227 234 231 237 239 239 243 244 247 250
140 90 55 29 16 358 340 339 325 335 319 302 261 243 258 260 256 254 242 248 267 265 249 239 254 252 243 249 255 255 257 243 227 220 213 231 247 253 254 251 245 250 259
225 263 258 275 295 304 320 338 340 339 347 326 316 283 284 270 249 244 241 243 252 226 193 217 217 235 256 260 265 254 252 240 219 204 205 214 232 240 249 246 243 238 258
256 258 262 267 271 279 287 296 305 312 322 326 309 296 288 282 266 257 255 253 239 227 218 189 204 232 276 268 273 254 253 255 247 240 225 235 230 223 217 209 211 220 237
244 249 260 263 263 267 272 279 283 284 290 299 300 298 294 287 286 276 258 253 253 262 249 248 245 221 233 259 308 234 243 253 245 241 242 240 237 219 214 233 234 232 246
242 244 249 250 253 255 255 261 269 270 274 280 282 281 281 284 285 281 274 258 261 263 257 251 238 199 200 244 327 280 265 269 238 234 245 234 245 238 230 222 220 218 236
284 282 275 270 264 259 259 260 262 262 269 273 271 272 278 281 277 272 278 267 262 263 256 257 252 222 177 211 235 236 233 245 244 230 243 233 246 239 234 232 239 236 232
303 296 292 284 275 269 263 258 256 257 259 263 269 272 273 273 272 272 269 273 261 260 260 266 259 249 235 221 236 231 224 221 239 237 234 235 239 239 239 239 241 243 242
303 295 290 284 284 281 276 273 260 254 254 259 263 270 270 265 267 270 271 267 265 254 256 262 264 259 264 256 247 239 242 238 240 238 235 235 243 247 243 240 247 247 248
310 307 298 292 286 281 277 268 261 258 247 247 251 252 256 264 268 269 268 270 266 257 255 265 263 256 255 256 255 266 244 239 232 236 234 236 241 249 251 255 256 259 263
297 297 291 287 282 277 275 272 260 249 241 241 243 244 246 257 263 269 274 271 269 266 263 261 263 263 258 254 261 252 248 245 228 228 229 236 236 239 246 248 253 252 257
305 301 291 284 280 273 268 265 258 251 241 239 241 241 238 245 261 273 263 255 253 288 295 279 254 248 248 242 239 246 251 246 236 239 236 235 235 232 240 241 241 248 239
318 307 298 288 283 277 269 272 271 260 257 254 252 250 256 258 268 268 268 270 273 277 269 257 252 241 234 242 238 243 248 246 245 242 229 227 225 223 225 235 243 239 234
318 312 307 296 282 274 274 266 270 272 262 260 257 258 258 261 268 269 266 269 274 267 226 245 241 238 234 235 239 232 234 244 248 234 222 229 226 225 226 226 230 228 233
314 310 309 313 299 274 276 274 260 259 252 259 258 257 262 267 269 269 261 267 260 246 238 245 244 252 258 250 252 244 244 244 240 231 226 226 230 225 220 221 220 224 228
311 305 304 305 304 294 280 275 264 263 254 257 266 267 267 266 262 259 259 252 241 246 248 244 242 247 249 253 254 250 252 251 246 227 230 233 235 227 229 228 228 230 224
308 293 290 302 303 306 288 267 264 255 254 253 254 261 271 267 257 253 250 243 244 243 250 243 244 249 252 250 246 250 248 247 242 239 237 238 236 237 231 230 229 230 230
324 328 300 302 304 301 302 267 266 256 257 254 255 272 273 264 260 262 260 255 258 257 257 257 247 245 250 254 251 244 243 239 239 237 239 236 237 232 240 239 236 230 231
353 340 326 320 341 3 2 354 336 312 293 284 286 287 281 268 269 265 263 265 264 261 262 264 262 254 248 246 248 245 243 242 240 241 235 232 232 238 238 242 243 237 228
8 10 17 16 10 4 4 360 359 357 334 307 300 296 297 285 281 283 274 274 272 264 263 262 262 263 263 259 255 247 242 241 246 246 238 235 226 229 236 234 231 228 227
17 22 20 16 12 7 1 357 360 0 358 359 1 346 338 338 328 316 312 298 284 277 266 260 259 259 266 256 258 259 254 258 253 252 250 239 232 237 245 235 231 234 231
13 16 20 22 18 11 4 6 4 360 1 2 358 357 360 2 5 357 346 333 327 315 277 267 267 266 264 259 254 256 258 252 260 252 252 241 241 243 242 238 242 240 239
20 20 16 17 18 13 11 10 9 7 6 4 3 2 358 359 7 10 9 3 349 328 313 294 277 268 258 255 260 259 255 257 255 261 247 249 251 246 243 237 241 243 237
Height
767 772 767 763 763 765 768 771 772 773 773 772 776 775 771 772 774 777 779 780 781 780 781 783 785 787 789 790 793 795 795 798 797 793 793 793 795 796 798 798 799 799 801
764 759 756 757 760 762 764 767 770 768 770 767 766 769 772 770 767 770 773 773 776 776 775 776 778 780 780 783 786 788 790 792 793 789 790 790 791 793 794 796 796 796 797
761 760 758 757 759 761 763 764 765 766 765 763 762 765 765 764 764 765 768 770 772 771 770 771 771 772 772 774 777 780 782 785 787 786 786 787 788 788 789 790 790 791 792
762 762 761 762 763 764 765 762 761 765 762 760 759 759 759 760 761 762 763 765 767 765 764 764 765 765 766 767 770 772 776 779 781 781 782 783 785 785 785 785 786 788 790
763 763 764 764 764 764 765 765 763 763 761 759 759 759 759 758 758 759 759 760 759 758 757 757 757 758 761 763 765 766 770 774 775 777 777 778 779 780 780 780 782 784 786
762 763 764 765 765 765 765 764 764 761 761 760 758 758 758 757 758 757 756 755 754 754 752 751 751 752 754 756 757 760 763 768 768 769 772 773 773 775 775 777 779 781 783
759 759 760 760 761 760 760 760 759 759 759 758 758 756 756 755 756 754 753 752 752 750 747 742 741 744 747 750 748 754 756 759 761 762 764 765 768 769 772 773 774 775 776
754 754 754 754 753 753 753 753 753 754 754 754 754 755 753 752 752 750 749 747 746 744 743 739 734 733 737 742 744 745 747 750 753 755 757 759 762 765 767 769 770 772 774
748 747 747 746 745 745 745 746 747 747 748 748 749 749 748 747 748 746 744 742 739 737 737 735 729 726 730 733 737 736 741 741 744 749 752 755 757 761 764 765 767 769 771
743 741 740 740 738 738 738 738 739 739 740 741 741 741 741 739 740 738 737 734 732 730 732 730 730 728 725 729 731 733 735 737 741 743 746 749 751 754 757 760 763 764 766
741 739 736 734 733 732 731 730 730 731 731 732 732 732 732 731 730 730 729 727 724 723 724 721 724 726 728 729 728 728 726 730 735 739 740 742 745 747 749 753 756 758 760
736 735 732 729 728 727 725 724 723 723 723 723 723 723 722 722 721 719 718 717 716 717 716 715 715 719 723 723 723 723 726 727 730 733 735 733 736 738 742 744 748 751 753
732 729 726 723 721 719 717 716 714 714 713 714 714 714 712 711 711 709 708 708 708 708 708 707 709 711 714 715 715 717 720 719 724 726 726 727 729 732 737 739 743 745 747
725 722 718 716 713 711 709 707 706 705 704 705 705 704 703 702 701 701 700 700 700 699 700 699 700 703 705 705 708 709 709 709 713 714 716 719 723 726 729 731 734 736 739
717 714 710 707 704 701 699 697 696 694 695 695 695 695 696 695 693 694 693 693 693 694 694 692 693 693 694 697 701 702 703 704 704 705 709 711 713 717 720 723 727 729 730
713 707 702 698 695 693 691 689 687 686 686 685 686 687 687 687 687 687 687 687 688 688 687 688 687 688 688 690 692 693 694 694 695 696 701 706 707 711 712 715 717 720 721
710 702 695 691 687 685 684 683 680 677 678 678 678 679 680 680 680 679 678 679 679 682 680 680 681 681 681 683 685 687 688 686 687 690 693 695 699 701 703 706 709 712 713
705 700 694 687 681 677 677 676 674 673 672 670 670 671 672 672 672 670 671 671 672 672 672 673 674 674 674 676 678 679 680 681 681 682 684 687 689 692 695 698 700 703 705
699 693 689 684 679 673 671 670 669 668 667 665 663 663 664 665 664 664 664 664 664 664 663 665 664 665 668 668 670 670 673 674 673 674 677 679 681 684 687 689 691 694 696
690 684 682 679 675 669 667 664 663 662 660 660 659 657 658 659 658 657 657 657 656 656 656 657 657 657 659 661 662 663 664 666 667 669 669 670 673 676 680 682 684 686 688
687 679 676 673 669 665 661 659 657 656 655 653 652 651 652 652 651 651 651 650 649 649 648 648 647 648 650 651 653 656 657 658 658 660 662 663 665 668 672 676 677 677 679
687 680 675 672 669 665 662 659 655 653 652 649 646 646 646 646 644 644 643 642 641 641 641 640 640 640 641 643 644 645 647 650 651 653 653 655 657 661 664 666 667 668 670
693 686 681 678 675 671 666 661 657 654 650 646 644 641 640 639 637 635 634 634 633 633 633 634 633 634 634 635 635 637 639 640 642 645 646 648 649 652 654 656 658 660 662
701 694 690 686 681 677 673 668 662 658 653 648 644 641 639 636 633 632 630 628 627 626 626 625 625 626 626 626 627 629 630 632 634 635 637 638 639 642 645 646 649 651 653
707 701 696 692 687 683 678 673 668 663 658 654 650 646 642 638 635 633 629 627 624 621 619 619 619 618 617 618 618 619 620 622 624 627 629 630 631 632 635 637 640 643 646
714 708 704 698 694 689 683 678 673 669 663 658 654 650 646 642 637 633 629 624 620 618 616 613 612 611 611 611 611 611 612 614 615 616 619 623 623 625 628 629 632 635 637